Location: Dackenheim
(49.5215°N, 8.1854°E)
Time: 10:28:11
(UTC+00:00)

Spot 2 Rocket - Pass Details

Date: 19 May 2025
Orbit: 753 x 766 km, 98.3° (Epoch: 23 June)

Event Time Altitude Azimuth Distance (km) Brightness Sun altitude
Exits shadow 20:17:46 - 158° (SSE) 2,317 5.4 -9.2°
Reaches altitude 10° 20:17:52 10° 158° (SSE) 2,275 5.4 -9.2°
Maximum altitude 20:22:52 78° 73° (ENE) 778 3.5 -9.8°
Drops below altitude 10° 20:27:56 10° 348° (NNW) 2,297 7.0 -10.3°
Sets 20:30:14 0° 347° (NNW) 3,229 7.9 -10.6°
